Location: Writing-on-Stone Provincial Park
(49.0825°N, 111.6163°W)
Time: 03:27:52
(UTC-06:00)

Amateur Radio Satellites - All Passes

Search period start: 06 May 2015 02:57
Search period end: 07 May 2015 02:57
Location: Writing-on-Stone Provincial Park, 49.0825°N, 111.6163°W

Satellite Date Start Highest point End Downlink Frequencies (MHz)
Time Altitude Azimuth
SWISSCUBE 06 May 03:02:16 03:06:28 29° 266° (W) 03:10:37 437.505
DANDE 06 May 03:06:06 03:14:07 58° 71° (ENE) 03:22:34 436.750
STARS 06 May 03:23:16 03:27:38 64° 72° (ENE) 03:32:03 437.465
AIST 2 06 May 03:23:18 03:27:11 32° 322° (NW) 03:31:04 435.215
Oscar 19 06 May 03:25:54 03:31:08 77° 287° (WNW) 03:36:19 437.125/150
BEESAT 3 06 May 04:13:39 04:14:45 11° 346° (NNW) 04:15:49 437.485
GONETS M04 06 May 04:18:30 04:27:02 54° 270° (W) 04:35:26
AO-7 06 May 04:23:54 04:30:24 25° 89° (E) 04:37:08 29.400- 29.500
Gurwin Techsat 1B 06 May 04:25:19 04:30:40 79° 287° (WNW) 04:35:59 435.225
ITAMSAT 1 06 May 04:26:34 04:31:45 71° 288° (WNW) 04:36:55 435.822/435.867
BEESAT 2 06 May 04:30:55 04:31:43 10° 348° (NNW) 04:32:28 435.950
KKS-1 06 May 04:35:17 04:38:31 19° 270° (W) 04:41:38 437.445
CUSAT 1 06 May 04:35:29 04:43:03 41° 271° (W) 04:50:28 437.405
Cosmos 2499 06 May 04:40:56 04:48:17 51° 71° (ENE) 04:55:13 435.465 / 435.565
MOZHAYETS 4 06 May 04:48:18 04:52:51 57° 71° (ENE) 04:57:24
DANDE 06 May 04:49:40 04:57:17 42° 270° (W) 05:05:02 436.750
JAS-2 06 May 04:58:06 05:03:34 38° 94° (E) 05:08:35 435.910
STARS 06 May 05:01:47 05:04:35 16° 272° (W) 05:07:15 437.465
AIST 2 06 May 05:05:20 05:07:03 12° 344° (NNW) 05:08:44 435.215
Oscar 19 06 May 05:06:54 05:09:43 15° 306° (NW) 05:12:22 437.125/150
HORYU 2 06 May 05:08:16 05:12:44 62° 101° (ESE) 05:17:09 437.375
CUBESAT XI-V 06 May 05:23:12 05:25:39 15° 58° (ENE) 05:28:15 437.345
O/OREOS (USA 219) 06 May 05:24:46 05:28:38 27° 51° (NE) 05:32:30 437.305
PCSat 06 May 05:35:25 05:38:23 15° 106° (ESE) 05:41:35 145.827
M-CUBED/EXP-1 PRIME 06 May 05:36:30 05:40:13 24° 58° (ENE) 05:43:53 437.505
PRISM 06 May 05:42:36 05:44:07 12° 58° (ENE) 05:45:47 437.425
Gurwin Techsat 1B 06 May 06:06:50 06:09:54 15° 306° (NW) 06:12:47 435.225
AUBIESAT-1 06 May 06:06:51 06:11:09 37° 62° (ENE) 06:15:19 437.475
ITAMSAT 1 06 May 06:07:55 06:10:27 13° 307° (NW) 06:12:47 435.822/435.867
BEESAT 2 06 May 06:11:02 06:11:40 10° 12° (NNE) 06:12:20 435.950
AO-7 06 May 06:15:53 06:24:17 84° 291° (WNW) 06:32:39 29.400- 29.500
GONETS M04 06 May 06:19:13 06:21:56 11° 291° (WNW) 06:24:01
MOZHAYETS 4 06 May 06:27:06 06:30:29 19° 271° (W) 06:33:44
Cosmos 2499 06 May 06:34:30 06:41:14 36° 274° (W) 06:47:32 435.465 / 435.565
JAS-2 06 May 06:43:16 06:48:44 37° 297° (WNW) 06:53:40 435.910
HORYU 2 06 May 06:45:48 06:48:59 19° 300° (WNW) 06:52:03 437.375
AIST 2 06 May 06:46:52 06:47:29 10° 8° (N) 06:48:09 435.215
STRAND 1 06 May 06:56:26 07:01:21 51° 69° (ENE) 07:06:18 437.568
CUBESAT XI-V 06 May 06:57:54 07:02:31 86° 256° (WSW) 07:07:09 437.345
O/OREOS (USA 219) 06 May 07:03:58 07:08:14 42° 251° (WSW) 07:12:26 437.305
CUTE-I 06 May 07:04:16 07:08:48 28° 93° (E) 07:13:25 437.470
M-CUBED/EXP-1 PRIME 06 May 07:10:04 07:14:48 56° 254° (WSW) 07:19:20 437.505
PRISM 06 May 07:14:51 07:19:00 89° 76° (ENE) 07:23:08 437.425
PCSat 06 May 07:15:40 07:21:06 86° 124° (SE) 07:26:35 145.827
Cubesat XI-IV 06 May 07:17:21 07:22:15 36° 96° (E) 07:27:11 437.490
BEESAT 3 06 May 07:30:49 07:34:04 22° 33° (NNE) 07:37:20 437.485
AUBIESAT-1 06 May 07:41:39 07:45:57 33° 259° (WSW) 07:50:03 437.475
BEESAT 2 06 May 07:47:43 07:51:11 25° 35° (NE) 07:54:38 435.950
Cosmos 2491 06 May 08:00:55 08:08:24 30° 60° (ENE) 08:16:01 435.465 / 435.565
AO-7 06 May 08:09:32 08:16:07 26° 313° (NW) 08:22:31 29.400- 29.500
AIST 2 06 May 08:24:15 08:27:37 22° 32° (NNE) 08:30:59 435.215
STRAND 1 06 May 08:36:39 08:40:52 25° 268° (W) 08:45:00 437.568
SO-50 06 May 08:39:09 08:41:33 14° 110° (ESE) 08:44:10 436.795
CUBESAT XI-V 06 May 08:39:20 08:40:48 11° 276° (W) 08:42:00 437.345
CUTE-I 06 May 08:44:01 08:49:08 48° 292° (WNW) 08:54:14 437.470
HO-68 06 May 08:48:20 08:52:50 18° 85° (E) 08:57:38 435.675
PRISM 06 May 08:54:39 08:55:10 10° 275° (W) 08:55:27 437.425
Cubesat XI-IV 06 May 08:57:29 09:02:24 38° 295° (WNW) 09:07:17 437.490
PCSat 06 May 09:00:45 09:05:14 25° 326° (NW) 09:09:40 145.827
BEESAT 3 06 May 09:08:24 09:12:31 73° 234° (SW) 09:16:34 437.485
YUBILEINY 06 May 09:08:55 09:15:27 25° 79° (E) 09:22:14 435.215
TIGRISAT 06 May 09:17:17 09:18:05 10° 54° (NE) 09:19:07 435.000
BRITE-PL 06 May 09:24:41 09:29:59 53° 98° (E) 09:35:32 437.365/2234.400
SEEDS 06 May 09:25:12 09:28:05 18° 90° (E) 09:31:04 437.485
ISS 06 May 09:25:21 09:28:29 47° 151° (SSE) 09:31:37 145.825
BEESAT 2 06 May 09:25:31 09:29:37 60° 236° (SW) 09:33:38 435.950
UNISAT 6 06 May 09:25:45 09:27:46 13° 56° (NE) 09:29:58 437.425
DOVE 4 06 May 09:28:20 09:32:50 28° 92° (E) 09:37:27 437.250
GOMX 1 06 May 09:49:08 09:54:26 58° 99° (E) 09:59:53 467.674
CANX-2 06 May 09:53:19 09:57:25 44° 98° (E) 10:01:29 2200.000
QB50P2 06 May 09:56:20 09:57:32 11° 56° (ENE) 09:58:55 145.880/145.840
Cosmos 2491 06 May 09:57:27 10:06:18 77° 264° (W) 10:15:07 435.465 / 435.565
CUTE 1.7 + AOD 2 06 May 10:00:33 10:04:42 47° 99° (E) 10:08:48 437.475
AIST 2 06 May 10:02:25 10:06:42 78° 233° (SW) 10:10:53 435.215
NANOSAT C BR1 06 May 10:05:02 10:06:55 13° 58° (ENE) 10:08:59 145.865
ANTELSAT 06 May 10:06:00 10:09:54 27° 64° (ENE) 10:13:54 437.575/2403.000
POPSAT HIP 1 06 May 10:13:14 10:15:42 16° 60° (ENE) 10:18:18 437.405
COMPASS 1 06 May 10:15:27 10:19:30 46° 98° (E) 10:23:32 437.405
AIST 1 06 May 10:15:48 10:19:25 26° 69° (ENE) 10:23:07
FUNcube-1 06 May 10:16:25 10:18:37 14° 85° (E) 10:20:59 145.935
SO-50 06 May 10:16:41 10:21:25 86° 125° (SE) 10:26:19 436.795
Oscar 11 06 May 10:17:05 10:20:25 22° 91° (E) 10:23:49 145.826/435.025
CINEMA 3 06 May 10:21:31 10:26:19 43° 96° (E) 10:31:05 145.822/145.860
DUCHIFAT 1 06 May 10:33:29 10:36:45 23° 63° (ENE) 10:40:07 145.980
HO-68 06 May 10:34:34 10:41:49 83° 108° (ESE) 10:49:00 435.675
CUBEBUG 2 06 May 10:37:08 10:41:26 32° 94° (E) 10:45:41 437.445
UWE-3 06 May 10:37:58 10:41:57 27° 92° (E) 10:45:55 435.000/436.395/437.385
DELFI C3 06 May 10:40:21 10:43:47 26° 94° (E) 10:47:13 145.870
HUMSAT D 06 May 10:41:07 10:42:15 11° 84° (E) 10:43:37 437.325/437.525
ZACube-1 06 May 10:45:42 10:49:32 26° 92° (E) 10:53:22 437.345
POLYITAN 1 06 May 10:47:06 10:50:49 31° 67° (ENE) 10:54:39 437.675
AAUSAT CUBESAT 2 06 May 10:47:45 10:51:57 87° 103° (ESE) 10:56:06 437.432
PCSat 06 May 10:48:31 10:50:40 12° 351° (N) 10:52:46 145.827
TIGRISAT 06 May 10:49:22 10:53:58 62° 72° (ENE) 10:58:39 435.000
QB50P1 06 May 10:58:18 11:02:13 38° 68° (ENE) 11:06:13 145.935-145.965
UNISAT 6 06 May 10:59:09 11:03:49 78° 74° (ENE) 11:08:34 437.425
SEEDS 06 May 11:00:07 11:04:14 51° 289° (WNW) 11:08:18 437.485
ISS 06 May 11:01:34 11:04:48 59° 350° (N) 11:08:02 145.825
YUBILEINY 06 May 11:02:30 11:11:20 84° 279° (W) 11:20:12 435.215
BRITE-PL 06 May 11:03:40 11:08:16 29° 296° (WNW) 11:12:58 437.365/2234.400
DOVE 4 06 May 11:05:43 11:10:49 49° 290° (WNW) 11:15:55 437.250
BUGSAT 1 06 May 11:07:15 11:10:51 32° 68° (ENE) 11:14:33 437.445
DX 1 06 May 11:11:06 11:14:40 25° 93° (E) 11:18:20 434.975-435.025
GOMX 1 06 May 11:27:49 11:32:15 26° 297° (WNW) 11:36:40 467.674
QB50P2 06 May 11:28:30 11:32:45 78° 75° (ENE) 11:37:04 145.880/145.840
CANX-2 06 May 11:29:45 11:33:07 22° 296° (WNW) 11:36:23 2200.000
VELOX 1 06 May 11:30:03 11:33:17 20° 91° (E) 11:36:39 145.980
UKube-1 06 May 11:36:30 11:40:37 40° 98° (E) 11:44:44 .
CUTE 1.7 + AOD 2 06 May 11:37:05 11:40:20 21° 297° (WNW) 11:43:29 437.475
NANOSAT C BR1 06 May 11:37:56 11:42:11 87° 255° (WSW) 11:46:29 145.865
ESTCUBE 1 06 May 11:38:06 11:40:32 15° 87° (E) 11:43:09 437.505/2401.250
ANTELSAT 06 May 11:42:02 11:46:31 43° 263° (W) 11:51:02 437.575/2403.000
AIST 2 06 May 11:43:36 11:44:35 11° 251° (WSW) 11:45:22 435.215
POPSAT HIP 1 06 May 11:46:52 11:51:06 71° 258° (WSW) 11:55:23 437.405
Cosmos 2504 06 May 11:47:19 11:53:54 26° 81° (E) 12:00:32 435.465 / 435.565
FUNcube-1 06 May 11:51:00 11:55:37 79° 286° (WNW) 12:00:07 145.935
COMPASS 1 06 May 11:51:44 11:54:56 21° 296° (WNW) 11:58:01 437.405
AISAT 06 May 11:52:15 11:56:19 33° 96° (E) 12:00:24 437.250
Oscar 11 06 May 11:52:41 11:56:51 44° 290° (WNW) 12:00:57 145.826/435.025
AIST 1 06 May 11:53:16 11:57:10 34° 268° (W) 12:01:02
Cosmos 2491 06 May 11:56:08 12:01:50 18° 285° (WNW) 12:07:06 435.465 / 435.565
SO-50 06 May 11:58:37 12:02:35 25° 331° (NNW) 12:06:36 436.795
CINEMA 3 06 May 11:58:57 12:03:22 31° 295° (WNW) 12:07:42 145.822/145.860
50 SAT 06 May 12:07:20 12:11:14 48° 99° (E) 12:15:06 437.505
DUCHIFAT 1 06 May 12:08:18 12:12:21 44° 262° (W) 12:16:27 145.980
CUBEBUG 2 06 May 12:13:47 12:18:09 35° 293° (WNW) 12:22:24 437.445
UWE-3 06 May 12:14:13 12:18:38 40° 291° (WNW) 12:22:56 435.000/436.395/437.385
HUMSAT D 06 May 12:14:24 12:18:45 88° 285° (WNW) 12:23:02 437.325/437.525
DELFI C3 06 May 12:15:20 12:18:57 32° 292° (WNW) 12:22:31 145.870
ZACube-1 06 May 12:21:43 12:26:03 41° 292° (WNW) 12:30:17 437.345
POLYITAN 1 06 May 12:22:55 12:26:44 31° 265° (W) 12:30:34 437.675
HO-68 06 May 12:23:06 12:28:53 26° 307° (NW) 12:34:30 435.675
AAUSAT CUBESAT 2 06 May 12:25:08 12:26:59 12° 301° (WNW) 12:28:41 437.432
TIGRISAT 06 May 12:27:52 12:31:11 18° 272° (W) 12:34:23 435.000
RS-15 06 May 12:31:34 12:40:46 35° 108° (ESE) 12:50:25 29.354- 29.394
PCSat 06 May 12:33:37 12:36:29 14° 17° (NNE) 12:39:25 145.827
QB50P1 06 May 12:34:43 12:38:15 24° 267° (W) 12:41:44 145.935-145.965
CUBEBUG 1 06 May 12:35:35 12:39:49 44° 99° (E) 12:44:03 437.445
ISS 06 May 12:38:10 12:41:24 59° 10° (N) 12:44:38 145.825
UNISAT 6 06 May 12:38:34 12:41:15 15° 274° (W) 12:43:47 437.425
VERMONT LUNAR 06 May 12:40:29 12:41:04 10° 159° (SSE) 12:41:43 437.305
BUGSAT 1 06 May 12:42:56 12:46:24 26° 266° (W) 12:49:52 437.445
DX 1 06 May 12:46:58 12:51:06 40° 292° (WNW) 12:55:11 434.975-435.025
YUBILEINY 06 May 13:02:57 13:09:47 23° 306° (NW) 13:16:21 435.215
VELOX 1 06 May 13:05:50 13:10:12 52° 290° (WNW) 13:14:32 145.980
QB50P2 06 May 13:07:23 13:09:18 12° 274° (W) 13:11:01 145.880/145.840
Oscar 19 06 May 13:08:10 13:12:52 37° 65° (ENE) 13:17:39 437.125/150
SPROUT 06 May 13:09:06 13:12:57 30° 95° (E) 13:16:48 437.525
UKube-1 06 May 13:12:59 13:16:36 25° 296° (WNW) 13:20:08 .
ESTCUBE 1 06 May 13:13:30 13:18:00 72° 286° (WNW) 13:22:29 437.505/2401.250
NANOSAT C BR1 06 May 13:18:25 13:18:48 10° 276° (W) 13:18:57 145.865
TISAT 1 06 May 13:27:28 13:31:25 35° 96° (E) 13:35:21 437.305
AISAT 06 May 13:28:53 13:32:53 32° 294° (WNW) 13:36:50 437.250
FUNcube-1 06 May 13:29:13 13:31:14 13° 304° (WNW) 13:33:04 145.935
PHONESAT 2.4 06 May 13:36:23 13:37:10 11° 157° (SSE) 13:38:00 2401.200-2431.200
Cosmos 2504 06 May 13:37:42 13:46:33 83° 279° (W) 13:55:01 435.465 / 435.565
AO-7 06 May 13:39:17 13:43:52 17° 37° (NE) 13:48:42 29.400- 29.500
SO-50 06 May 13:42:22 13:44:49 13° 355° (N) 13:47:15 436.795
50 SAT 06 May 13:42:50 13:45:43 19° 297° (WNW) 13:48:30 437.505
HUMSAT D 06 May 13:51:56 13:53:53 13° 302° (WNW) 13:55:39 437.325/437.525
ITAMSAT 1 06 May 14:09:43 14:14:33 42° 67° (ENE) 14:19:26 435.822/435.867
Gurwin Techsat 1B 06 May 14:11:16 14:16:09 39° 66° (ENE) 14:21:05 435.225
CUBEBUG 1 06 May 14:12:26 14:15:58 24° 296° (WNW) 14:19:26 437.445
ISS 06 May 14:14:34 14:17:44 47° 209° (SSW) 14:20:52 145.825
VERMONT LUNAR 06 May 14:15:19 14:17:42 18° 175° (S) 14:20:07 437.305
PCSat 06 May 14:16:32 14:21:33 37° 42° (NE) 14:26:34 145.827
ITUPSAT 1 06 May 14:30:29 14:34:32 27° 93° (E) 14:38:37 437.325
HORYU 2 06 May 14:36:25 14:38:45 14° 57° (ENE) 14:41:13 437.375
RS-15 06 May 14:41:16 14:52:13 80° 312° (NW) 15:03:34 29.354- 29.394
SPROUT 06 May 14:45:08 14:49:03 33° 293° (WNW) 14:52:55 437.525
Oscar 19 06 May 14:47:29 14:52:15 36° 264° (W) 14:57:02 437.125/150
ESTCUBE 1 06 May 14:52:44 14:54:08 11° 305° (NW) 14:55:21 437.505/2401.250
BEESAT 06 May 14:53:04 14:57:37 44° 98° (E) 15:02:11 436.000
SWISSCUBE 06 May 14:57:38 15:02:17 52° 100° (E) 15:06:57 437.505
TISAT 1 06 May 15:03:25 15:07:06 28° 294° (WNW) 15:10:44 437.305
PHONESAT 2.4 06 May 15:11:57 15:14:35 20° 174° (S) 15:17:14 2401.200-2431.200
JAS-2 06 May 15:13:06 15:19:40 35° 62° (ENE) 15:25:50 435.910
SO-50 06 May 15:24:01 15:27:15 17° 19° (NNE) 15:30:33 436.795
AO-7 06 May 15:27:03 15:34:54 51° 60° (ENE) 15:42:51 29.400- 29.500
GONETS M04 06 May 15:28:06 15:36:02 41° 86° (E) 15:44:08
Cosmos 2504 06 May 15:34:42 15:41:25 23° 304° (NW) 15:47:39 435.465 / 435.565
ITAMSAT 1 06 May 15:49:37 15:54:12 31° 265° (W) 15:58:46 435.822/435.867
Gurwin Techsat 1B 06 May 15:51:21 15:56:12 35° 265° (W) 16:01:02 435.225
VERMONT LUNAR 06 May 15:52:19 15:54:26 16° 192° (SSW) 15:56:33 437.305
PCSat 06 May 15:59:55 16:05:09 49° 243° (WSW) 16:10:21 145.827
CUSAT 1 06 May 16:04:49 16:09:34 39° 89° (E) 16:15:45 437.405
ITUPSAT 1 06 May 16:08:06 16:12:36 42° 293° (WNW) 16:17:04 437.325
HORYU 2 06 May 16:10:17 16:14:48 87° 260° (W) 16:19:22 437.375
KKS-1 06 May 16:20:32 16:25:02 64° 102° (ESE) 16:29:31 437.445
DANDE 06 May 16:23:10 16:27:38 40° 89° (E) 16:33:36 436.750
BEESAT 06 May 16:31:17 16:35:18 27° 297° (WNW) 16:39:15 436.000
SWISSCUBE 06 May 16:36:05 16:39:52 24° 298° (WNW) 16:43:35 437.505
STARS 06 May 16:45:12 16:49:42 73° 104° (ESE) 16:54:09 437.465
PHONESAT 2.4 06 May 16:49:37 16:52:08 18° 191° (S) 16:54:37 2401.200-2431.200
CUTE-I 06 May 16:53:48 16:56:06 13° 52° (NE) 16:58:36 437.470
RS-15 06 May 16:56:16 17:06:31 40° 343° (NNW) 17:17:07 29.354- 29.394
JAS-2 06 May 16:56:53 17:04:29 62° 260° (W) 17:11:25 435.910
SO-50 06 May 17:04:13 17:09:00 46° 42° (NE) 17:13:47 436.795
Cubesat XI-IV 06 May 17:06:14 17:09:22 17° 55° (NE) 17:12:41 437.490
AO-7 06 May 17:19:57 17:27:52 46° 261° (W) 17:35:47 29.400- 29.500
Cosmos 2499 06 May 17:21:32 17:29:17 39° 87° (E) 17:36:45 435.465 / 435.565
GONETS M04 06 May 17:24:05 17:32:42 55° 288° (WNW) 17:41:23
CUSAT 1 06 May 17:47:19 17:52:20 39° 296° (WNW) 17:58:43 437.405
HORYU 2 06 May 17:50:45 17:52:14 11° 275° (W) 17:53:29 437.375
KKS-1 06 May 17:58:07 18:01:16 18° 300° (WNW) 18:04:18 437.445
DANDE 06 May 18:06:26 18:11:03 34° 298° (WNW) 18:17:01 436.750
MOZHAYETS 4 06 May 18:16:20 18:20:57 79° 102° (ESE) 18:25:31
STARS 06 May 18:22:49 18:25:40 16° 301° (WNW) 18:28:22 437.465
CUTE-I 06 May 18:30:04 18:35:19 67° 72° (ENE) 18:40:37 437.470
Cubesat XI-IV 06 May 18:43:28 18:48:47 86° 77° (ENE) 18:54:10 437.490
SO-50 06 May 18:44:58 18:49:30 35° 241° (WSW) 18:53:56 436.795
JAS-2 06 May 18:47:32 18:50:56 13° 280° (W) 18:53:47 435.910
CUBESAT XI-V 06 May 18:51:21 18:54:29 18° 89° (E) 18:57:46 437.345
STRAND 1 06 May 19:04:44 19:06:37 12° 84° (E) 19:08:46 437.568
BRITE-PL 06 May 19:04:47 19:06:47 13° 55° (NE) 19:09:01 437.365/2234.400
RS-15 06 May 19:12:02 19:22:24 40° 16° (NNE) 19:33:15 29.354- 29.394
YUBILEINY 06 May 19:12:10 19:17:11 17° 47° (NE) 19:22:34 435.215
Cosmos 2499 06 May 19:13:44 19:22:16 56° 287° (WNW) 19:30:17 435.465 / 435.565
AUBIESAT-1 06 May 19:21:05 19:21:54 11° 91° (E) 19:22:52 437.475
HO-68 06 May 19:21:41 19:27:07 25° 52° (NE) 19:32:42 435.675
GOMX 1 06 May 19:26:21 19:28:43 14° 56° (NE) 19:31:19 467.674
GONETS M04 06 May 19:27:20 19:32:14 15° 316° (NW) 19:36:43
O/OREOS (USA 219) 06 May 19:43:25 19:45:25 13° 99° (E) 19:47:37 437.305
MOZHAYETS 4 06 May 19:54:52 19:57:39 16° 301° (WNW) 20:00:17
CINEMA 3 06 May 19:54:52 19:55:22 10° 52° (NE) 19:56:05 145.822/145.860
AAUSAT CUBESAT 2 06 May 20:09:23 20:11:23 13° 59° (ENE) 20:13:31 437.432
CUTE-I 06 May 20:12:03 20:15:58 20° 271° (W) 20:19:46 437.470
SEEDS 06 May 20:21:11 20:24:31 23° 64° (ENE) 20:27:55 437.485
M-CUBED/EXP-1 PRIME 06 May 20:23:06 20:26:58 60° 106° (ESE) 20:30:30 437.505
Cubesat XI-IV 06 May 20:26:31 20:29:42 15° 274° (W) 20:32:41 437.490
CUBESAT XI-V 06 May 20:27:48 20:32:22 60° 288° (WNW) 20:36:57 437.345
PRISM 06 May 20:28:32 20:32:40 83° 104° (ESE) 20:36:47 437.425
DOVE 4 06 May 20:38:01 20:42:16 39° 67° (ENE) 20:46:51 437.250
BRITE-PL 06 May 20:40:06 20:44:30 83° 77° (ENE) 20:49:18 437.365/2234.400
STRAND 1 06 May 20:41:37 20:46:46 82° 104° (ESE) 20:51:54 437.568
CANX-2 06 May 20:49:57 20:54:09 54° 72° (ENE) 20:58:23 2200.000
AUBIESAT-1 06 May 20:53:32 20:57:24 71° 293° (WNW) 21:00:56 437.475
CUTE 1.7 + AOD 2 06 May 20:57:06 21:01:20 58° 72° (ENE) 21:05:34 437.475
GOMX 1 06 May 21:01:34 21:06:05 87° 81° (E) 21:10:59 467.674
HO-68 06 May 21:06:52 21:14:05 90° 249° (WSW) 21:21:21 435.675
YUBILEINY 06 May 21:07:43 21:16:23 62° 74° (ENE) 21:25:00 435.215
Cosmos 2491 06 May 21:08:52 21:15:43 28° 80° (E) 21:22:51 435.465 / 435.565
COMPASS 1 06 May 21:10:24 21:14:32 54° 72° (ENE) 21:18:42 437.405
Cosmos 2499 06 May 21:12:59 21:17:37 15° 312° (NW) 21:21:42 435.465 / 435.565
Oscar 11 06 May 21:15:41 21:19:25 29° 66° (ENE) 21:23:13 145.826/435.025
FUNcube-1 06 May 21:15:51 21:18:59 19° 61° (ENE) 21:22:16 145.935
O/OREOS (USA 219) 06 May 21:19:41 21:24:16 83° 297° (WNW) 21:28:50 437.305
RS-15 06 May 21:25:29 21:36:58 75° 46° (NE) 21:49:00 29.354- 29.394
CINEMA 3 06 May 21:27:01 21:31:35 59° 71° (ENE) 21:36:24 145.822/145.860
DELFI C3 06 May 21:31:45 21:35:17 29° 67° (ENE) 21:38:52 145.870
Cosmos 2504 06 May 21:35:37 21:37:40 11° 42° (NE) 21:40:04 435.465 / 435.565
HUMSAT D 06 May 21:36:27 21:38:54 15° 60° (ENE) 21:41:30 437.325/437.525
UWE-3 06 May 21:38:50 21:43:00 36° 67° (ENE) 21:47:17 435.000/436.395/437.385
CUBEBUG 2 06 May 21:39:05 21:43:25 43° 69° (ENE) 21:47:55 437.445
AAUSAT CUBESAT 2 06 May 21:42:13 21:46:27 82° 257° (WSW) 21:50:42 437.432
ZACube-1 06 May 21:45:24 21:49:27 34° 67° (ENE) 21:53:37 437.345
SEEDS 06 May 21:56:00 22:00:06 43° 262° (W) 22:04:13 437.485
M-CUBED/EXP-1 PRIME 06 May 21:58:55 22:01:24 16° 307° (NW) 22:03:39 437.505
PRISM 06 May 22:05:39 22:07:35 13° 302° (WNW) 22:09:24 437.425
DX 1 06 May 22:10:29 22:14:26 36° 67° (ENE) 22:18:27 434.975-435.025
DOVE 4 06 May 22:16:08 22:20:11 29° 268° (W) 22:24:24 437.250
BRITE-PL 06 May 22:21:53 22:23:56 13° 277° (W) 22:25:50 437.365/2234.400
STRAND 1 06 May 22:21:58 22:25:25 18° 303° (WNW) 22:28:43 437.568
CANX-2 06 May 22:27:24 22:30:27 18° 271° (W) 22:33:23 2200.000
VELOX 1 06 May 22:31:30 22:35:18 30° 65° (ENE) 22:39:11 145.980
CUTE 1.7 + AOD 2 06 May 22:34:47 22:37:39 17° 271° (W) 22:40:25 437.475
UKube-1 06 May 22:35:07 22:39:21 58° 72° (ENE) 22:43:38 .
ESTCUBE 1 06 May 22:41:26 22:44:57 23° 63° (ENE) 22:48:31 437.505/2401.250
GOMX 1 06 May 22:43:06 22:45:09 12° 278° (W) 22:47:01 467.674
COMPASS 1 06 May 22:47:42 22:50:36 17° 271° (W) 22:53:23 437.405
UNISAT 6 06 May 22:49:01 22:51:04 13° 85° (E) 22:53:18 437.425
FUNcube-1 06 May 22:50:26 22:54:54 62° 260° (W) 22:59:29 145.935
Oscar 11 06 May 22:51:32 22:55:32 34° 264° (W) 22:59:32 145.826/435.025
AIST 1 06 May 22:51:49 22:53:30 12° 84° (E) 22:55:24
AISAT 06 May 22:53:55 22:58:09 49° 70° (ENE) 23:02:27 437.250
50 SAT 06 May 22:56:08 23:00:02 50° 71° (ENE) 23:04:00 437.505
HO-68 06 May 22:57:41 23:02:54 20° 274° (W) 23:07:52 435.675
O/OREOS (USA 219) 06 May 23:01:42 23:04:28 15° 318° (NW) 23:07:09 437.305
Cosmos 2491 06 May 23:03:02 23:11:48 77° 282° (WNW) 23:20:41 435.465 / 435.565
YUBILEINY 06 May 23:05:08 23:12:50 35° 276° (W) 23:20:20 435.215
CINEMA 3 06 May 23:05:48 23:09:15 20° 272° (W) 23:12:41 145.822/145.860
DELFI C3 06 May 23:06:48 23:10:24 29° 265° (W) 23:13:59 145.870
HUMSAT D 06 May 23:09:49 23:14:09 75° 258° (WSW) 23:18:31 437.325/437.525
UWE-3 06 May 23:15:31 23:19:34 30° 266° (W) 23:23:41 435.000/436.395/437.385
CUBEBUG 2 06 May 23:16:26 23:20:18 26° 269° (W) 23:24:12 437.445
NANOSAT C BR1 06 May 23:20:48 23:22:21 12° 86° (E) 23:24:08 145.865
ZACube-1 06 May 23:21:46 23:25:50 32° 266° (W) 23:29:56 437.345
Cosmos 2504 06 May 23:26:21 23:33:49 47° 70° (ENE) 23:40:52 435.465 / 435.565
POPSAT HIP 1 06 May 23:29:17 23:31:41 15° 88° (E) 23:34:14 437.405
ANTELSAT 06 May 23:30:06 23:34:15 31° 94° (E) 23:38:19 437.575/2403.000
CUBEBUG 1 06 May 23:35:35 23:39:51 62° 72° (ENE) 23:44:09 437.445
RS-15 06 May 23:38:21 23:48:52 41° 249° (WSW) 23:59:33 29.354- 29.394
DX 1 06 May 23:47:03 23:50:47 27° 266° (W) 23:54:29 434.975-435.025
DUCHIFAT 1 06 May 23:49:18 23:52:40 22° 92° (E) 23:56:07 145.980
POLYITAN 1 07 May 00:03:55 00:07:49 32° 96° (E) 00:11:44 437.675
SPROUT 07 May 00:07:08 00:11:06 38° 68° (ENE) 00:15:08 437.525
VELOX 1 07 May 00:07:47 00:11:49 34° 264° (W) 00:15:51 145.980
UKube-1 07 May 00:13:02 00:15:55 17° 270° (W) 00:18:41 .
TIGRISAT 07 May 00:13:44 00:18:26 77° 103° (ESE) 00:23:00 435.000
QB50P1 07 May 00:14:52 00:18:57 40° 98° (E) 00:23:02 145.935-145.965
ESTCUBE 1 07 May 00:17:14 00:21:35 47° 261° (W) 00:25:56 437.505/2401.250
BUGSAT 1 07 May 00:20:22 00:24:11 32° 96° (E) 00:28:02 437.445
TISAT 1 07 May 00:23:29 00:27:28 44° 70° (ENE) 00:31:32 437.305
UNISAT 6 07 May 00:23:54 00:28:36 84° 285° (WNW) 00:33:10 437.425
AIST 1 07 May 00:26:22 00:30:37 73° 280° (W) 00:34:54
BEESAT 07 May 00:28:51 00:31:02 13° 55° (NE) 00:33:23 436.000
AISAT 07 May 00:31:40 00:35:03 21° 269° (W) 00:38:21 437.250
50 SAT 07 May 00:32:22 00:35:09 17° 270° (W) 00:37:50 437.505
SWISSCUBE 07 May 00:32:59 00:35:39 15° 57° (ENE) 00:38:28 437.505
BEESAT 3 07 May 00:42:24 00:46:25 55° 124° (SE) 00:50:28 437.485
QB50P2 07 May 00:45:33 00:49:54 84° 104° (ESE) 00:54:13 145.880/145.840
NANOSAT C BR1 07 May 00:54:33 00:58:52 82° 285° (WNW) 01:03:10 145.865
CUSAT 1 07 May 00:55:04 00:59:31 16° 46° (NE) 01:04:24 437.405
BEESAT 2 07 May 01:00:22 01:04:28 68° 126° (SE) 01:08:37 435.950
POPSAT HIP 1 07 May 01:03:46 01:08:05 67° 287° (WNW) 01:12:21 437.405
Cosmos 2491 07 May 01:04:04 01:10:31 21° 308° (NW) 01:16:44 435.465 / 435.565
ANTELSAT 07 May 01:06:48 01:11:04 35° 293° (WNW) 01:15:12 437.575/2403.000
CUBEBUG 1 07 May 01:13:56 01:16:41 16° 272° (W) 01:19:18 437.445
DANDE 07 May 01:15:28 01:20:27 18° 49° (NE) 01:25:57 436.750
Cosmos 2504 07 May 01:20:03 01:27:12 41° 273° (W) 01:33:51 435.465 / 435.565
DUCHIFAT 1 07 May 01:24:36 01:28:42 42° 291° (WNW) 01:32:45 145.980
GONETS M04 07 May 01:32:35 01:39:40 27° 57° (ENE) 01:46:55
POLYITAN 1 07 May 01:39:52 01:43:42 30° 294° (WNW) 01:47:28 437.675
ITUPSAT 1 07 May 01:41:05 01:45:41 50° 69° (ENE) 01:50:19 437.325
AIST 2 07 May 01:41:58 01:46:10 59° 124° (SE) 01:50:25 435.215
SPROUT 07 May 01:43:45 01:47:20 25° 267° (W) 01:50:53 437.525
KKS-1 07 May 01:48:39 01:50:56 14° 58° (ENE) 01:53:23 437.445
QB50P1 07 May 01:51:07 01:54:39 25° 296° (WNW) 01:58:08 145.935-145.965
TIGRISAT 07 May 01:51:39 01:54:38 17° 301° (WNW) 01:57:26 435.000
BUGSAT 1 07 May 01:55:55 01:59:36 29° 294° (WNW) 02:03:16 437.445
TISAT 1 07 May 02:00:15 02:03:30 21° 269° (W) 02:06:42 437.305
UNISAT 6 07 May 02:02:20 02:04:41 14° 304° (WNW) 02:06:51 437.425
BEESAT 07 May 02:03:25 02:08:11 80° 73° (ENE) 02:13:00 436.000
SWISSCUBE 07 May 02:08:08 02:12:55 87° 261° (W) 02:17:43 437.505
STARS 07 May 02:11:55 02:14:26 15° 59° (ENE) 02:17:05 437.465
BEESAT 3 07 May 02:21:10 02:24:42 26° 324° (NW) 02:28:12 437.485
QB50P2 07 May 02:22:59 02:25:15 14° 301° (WNW) 02:27:22 145.880/145.840
Gurwin Techsat 1B 07 May 02:25:56 02:26:48 10° 82° (E) 02:28:00 435.225
NANOSAT C BR1 07 May 02:32:23 02:34:04 12° 303° (WNW) 02:35:34 145.865
CUSAT 1 07 May 02:36:22 02:44:20 53° 69° (ENE) 02:52:18 437.405
BEESAT 2 07 May 02:39:36 02:42:59 23° 326° (NNW) 02:46:22 435.950
